FW8938 Weather Reports


time (UTC)temp
F
wind
direction
speed
knots
gust
knots
rain 1hr
in
rain 24hr
in
rain mn
in
humidity
%
barometer
mb
20260505071549 65 61 7.8 13.9 0.00 0.00 0.00 72 1006.2
20260505070054 65 51 10.4 16.5 0.00 0.00 0.00 72 1006.2
20260505064556 65 18 8.7 15.6 0.00 0.00 0.00 72 1006.2
20260505063100 65 316 7.8 16.5 0.00 0.00 0.00 72 1006.2
20260505061617 65 38 9.6 13.9 0.00 0.00 0.00 72 1006.1
20260505060056 65 15 7.8 15.6 0.00 0.00 0.00 72 1006.1
20260505054616 65 42 6.1 14.8 0.00 0.00 0.00 71 1006.5
20260505053056 66 314 10.4 20.0 0.00 0.00 0.00 70 1006.6
20260505051627 65 35 11.3 18.2 0.00 0.00 0.00 71 1006.3
20260505041553 66 9 8.7 15.6 0.00 0.00 0.00 70 1006.8
20260505040100 66 22 7.0 13.9 0.00 0.00 0.00 70 1007.0
20260505034550 67 28 9.6 16.5 0.00 0.00 0.00 69 1007.2
20260505033053 67 43 7.0 14.8 0.00 0.00 0.00 68 1007.5
20260505031552 67 17 8.7 16.5 0.00 0.00 0.00 67 1007.2
20260505030052 68 27 7.0 12.2 0.00 0.00 0.00 65 1007.4
20260505024609 68 47 6.1 13.9 0.00 0.00 0.00 64 1007.3
20260505023055 69 342 7.0 11.3 0.00 0.00 0.00 63 1007.0
20260505021613 69 46 6.1 13.0 0.00 0.00 0.00 62 1006.8
20260505020100 70 36 8.7 14.8 0.00 0.00 0.00 60 1006.6
20260505014555 70 27 4.3 12.2 0.00 0.00 0.00 60 1006.4
20260505013057 71 63 7.8 13.0 0.00 0.00 0.00 58 1006.2
20260505011556 72 32 7.8 15.6 0.00 0.00 0.00 57 1006.0
20260505010053 72 42 7.8 13.0 0.00 0.00 0.00 56 1005.9
20260505004559 73 42 4.3 8.7 0.00 0.00 0.00 55 1005.8
20260505003054 74 49 5.2 13.0 0.00 0.00 0.00 53 1005.7
20260505001555 75 36 7.8 13.9 0.00 0.00 0.00 51 1005.7
20260505000057 75 26 8.7 17.4 0.00 0.00 0.00 49 1005.8
20260504234552 76 349 9.6 19.1 0.00 0.00 0.00 48 1005.8
20260504233100 77 329 12.2 19.1 0.00 0.00 0.00 49 1005.9
20260504231554 77 24 12.2 17.4 0.00 0.00 0.00 49 1005.9
20260504230101 77 57 11.3 20.0 0.00 0.00 0.00 49 1005.9
20260504224553 78 36 7.8 16.5 0.00 0.00 0.00 49 1005.9
20260504223055 78 24 14.8 21.7 0.00 0.00 0.00 49 1006.0
20260504221606 78 55 10.4 18.2 0.00 0.00 0.00 47 1006.0
20260504220122 78 40 10.4 22.6 0.00 0.00 0.00 49 1005.9
20260504214555 78 34 12.2 18.2 0.00 0.00 0.00 49 1006.1
20260504213122 79 40 8.7 22.6 0.00 0.00 0.00 49 1006.3
20260504211555 78 57 13.0 21.7 0.00 0.00 0.00 48 1006.4
20260504210059 78 54 10.4 21.7 0.00 0.00 0.00 49 1006.5
20260504204606 78 51 10.4 20.0 0.00 0.00 0.00 48 1006.7
20260504203052 78 38 13.9 20.9 0.00 0.00 0.00 48 1006.8
20260504201554 78 33 14.8 22.6 0.00 0.00 0.00 47 1007.0
20260504200109 77 31 15.6 22.6 0.00 0.00 0.00 49 1007.1
20260504194559 77 34 14.8 26.1 0.00 0.00 0.00 48 1007.3
20260504193054 77 41 13.9 28.7 0.00 0.00 0.00 47 1007.4
20260504191559 77 345 15.6 24.3 0.00 0.00 0.00 47 1007.5
20260504190057 77 48 13.0 24.3 0.00 0.00 0.00 50 1007.6
20260504184558 77 33 10.4 23.5 0.00 0.00 0.00 48 1007.7
20260504183059 76 74 14.8 22.6 0.00 0.00 0.00 49 1007.8
20260504181556 76 51 13.0 24.3 0.00 0.00 0.00 49 1007.7
20260504180054 75 46 13.0 26.1 0.00 0.00 0.00 51 1007.8
20260504174557 76 38 11.3 23.5 0.00 0.00 0.00 51 1007.9
20260504173100 75 25 12.2 30.4 0.00 0.00 0.00 51 1008.0
20260504171556 75 51 14.8 22.6 0.00 0.00 0.00 52 1007.9
20260504081554 62 51 7.0 13.0 0.00 0.00 0.00 64 1010.5